Location: Coed Ely
(51.5661°N, 3.4150°W)
Time: 02:16:30
(UTC+00:00)

Cosmos 494 Rocket - Pass Details

Date: 28 January 2021
Orbit: 742 x 771 km, 74.1° (Epoch: 28 February)

Event Time Altitude Azimuth Distance (km) Brightness Sun altitude
Rises 18:32:36 0° 338° (NNW) 3,202 7.4 -14.9°
Reaches altitude 10° 18:35:07 10° 346° (NNW) 2,277 6.5 -15.3°
Maximum altitude 18:39:57 39° 55° (NE) 1,124 4.4 -16.0°
Enters shadow 18:42:30 24° 108° (ESE) 1,536 5.0 -16.4°
